Wind_Speed
4 3 5 6 5 16 9 7 8 7 7 5 4 5 8 4 3 5 6 2 5 5 6 5 6 9 11 10 9 10 8 8 9 8 7 8 10 11 10 9 10 10 10 9 9 9 8 8 6
2 2 3 0 14 14 3 3 4 5 5 7 8 8 7 6 6 3 5 7 5 5 4 5 4 6 9 10 8 8 6 7 7 8 8 8 10 9 10 10 11 11 10 10 10 9 9 9 9
6 7 2 7 9 1 5 3 2 4 4 4 8 8 6 6 6 5 7 6 8 7 5 5 4 5 7 9 8 8 6 6 7 8 7 11 12 11 10 11 11 12 11 10 10 9 10 11 9
9 7 5 12 7 5 4 2 2 4 3 3 6 6 5 5 5 6 6 6 7 8 7 5 4 5 7 8 9 7 9 11 12 10 12 14 14 13 12 12 11 13 14 12 13 12 11 13 13
10 14 17 11 3 7 6 6 6 3 2 4 5 5 5 7 6 7 7 7 7 7 7 6 5 5 7 8 10 9 11 13 15 14 15 14 11 11 14 17 14 13 17 16 16 16 15 13 13
9 11 17 15 5 4 7 7 9 6 4 7 5 4 5 6 7 7 8 7 8 8 7 7 5 6 8 9 10 9 8 10 12 12 12 12 11 12 14 16 18 14 11 12 13 12 14 15 14
13 3 10 4 9 3 5 4 6 8 7 8 8 7 7 7 8 9 9 8 9 9 9 9 7 8 9 10 9 8 8 9 11 11 12 13 16 14 13 14 15 14 13 13 13 13 14 13 15
11 8 8 14 11 8 7 7 7 6 8 8 8 7 9 8 9 11 10 10 8 9 10 9 9 10 11 10 10 9 10 9 10 10 11 13 11 12 13 13 17 15 14 14 13 15 15 15 15
13 14 8 8 9 15 11 10 12 11 7 13 15 6 8 10 10 11 10 9 8 12 11 10 11 12 12 10 10 11 11 9 10 11 11 13 12 12 10 12 13 12 12 13 12 15 16 15 15
2 8 6 6 9 8 11 14 4 16 4 4 12 7 6 10 10 10 11 10 9 12 12 12 12 13 11 10 10 11 11 10 11 13 13 14 13 10 9 10 9 10 10 12 13 14 15 15 15
7 10 2 7 8 9 10 9 14 8 6 5 2 6 6 11 11 11 12 11 10 12 11 14 14 11 10 10 10 10 10 11 10 11 10 11 9 7 8 8 7 8 9 10 12 13 15 14 14
6 6 6 9 9 9 10 13 15 18 12 7 4 7 8 12 11 12 13 12 12 12 13 13 11 10 9 9 8 7 9 8 8 8 8 6 5 6 6 5 6 7 8 10 11 11 13 12 14
3 5 5 8 9 10 10 12 14 14 10 12 7 5 9 10 9 10 11 11 11 11 12 10 8 9 7 7 6 8 8 7 7 6 4 2 2 4 5 5 5 5 7 7 9 8 10 11 15
8 4 4 13 14 10 8 9 11 13 9 9 6 5 7 8 9 9 9 9 9 9 10 7 8 7 5 5 7 8 8 6 6 3 2 3 4 5 4 5 6 8 9 11 12 12 12 14 13
19 2 10 24 16 15 8 8 11 11 8 5 6 7 6 9 11 11 9 9 10 9 9 8 8 6 4 4 4 6 6 7 5 3 2 2 4 5 6 7 10 11 11 11 11 12 13 13 13
28 24 18 25 14 15 9 2 14 7 6 5 4 6 7 8 9 10 11 11 10 9 8 7 6 3 2 2 4 5 5 6 6 5 4 5 3 3 6 8 9 11 12 11 11 14 13 13 13
26 22 18 12 16 11 17 10 20 8 5 4 3 5 6 8 8 8 10 10 10 9 8 8 6 4 4 4 3 4 5 5 6 5 5 5 5 7 8 10 11 13 12 11 11 9 11 13 16
16 14 13 8 14 15 14 15 12 12 8 5 3 2 5 6 7 6 7 9 9 9 9 9 9 8 6 4 3 3 4 5 6 6 6 7 9 10 10 11 11 11 12 12 11 11 12 15 17
14 16 18 12 9 18 13 14 13 11 15 9 5 5 5 7 8 8 8 9 8 8 9 10 9 8 7 6 5 5 5 5 6 7 7 8 10 11 10 9 10 9 11 11 10 9 12 12 13
8 25 25 7 4 9 18 8 16 14 13 14 9 6 7 8 10 11 11 11 11 10 8 9 9 9 7 6 7 7 7 7 8 9 9 9 9 9 11 12 12 12 9 8 6 11 10 10 14
9 25 14 13 12 15 20 14 23 22 6 15 12 10 8 9 10 11 13 13 13 11 10 10 9 8 8 8 9 9 8 8 8 7 7 7 8 9 10 11 9 6 4 1 5 9 10 13 15
9 17 12 17 13 11 17 28 11 11 10 6 10 11 10 9 11 12 13 15 15 15 13 11 11 12 12 11 10 9 9 7 5 5 5 4 3 4 6 8 4 1 2 4 5 7 10 10 12
18 20 19 11 10 13 17 25 25 27 32 25 12 12 13 11 10 11 12 14 15 14 13 12 12 12 12 10 8 8 7 5 5 4 4 4 5 6 8 8 7 6 4 4 4 6 7 6 9
31 25 21 14 16 20 27 23 19 14 12 10 12 13 12 10 8 9 11 13 14 12 11 11 11 10 10 8 9 8 6 6 7 7 7 8 8 8 9 10 9 7 5 4 5 6 6 7 9
27 25 23 16 14 21 25 27 20 13 7 12 9 14 9 10 7 6 10 10 13 13 10 8 7 8 8 8 8 8 9 9 10 10 9 7 7 7 8 8 7 6 6 6 6 8 8 7 9
22 21 21 23 23 33 27 31 24 14 3 7 1 6 12 9 7 4 2 6 8 7 7 7 8 7 7 7 9 13 11 11 11 9 7 7 6 6 6 5 5 6 5 3 4 6 8 9 11
23 24 23 27 26 26 33 27 14 8 6 7 6 15 13 8 7 5 2 4 7 6 6 8 9 10 11 12 14 14 13 12 11 9 7 7 6 7 5 5 5 6 3 3 5 7 8 10 11
19 19 21 23 25 24 23 23 28 9 23 16 9 5 18 8 8 7 5 1 3 7 8 8 9 11 12 14 14 13 11 10 9 8 7 7 6 6 5 4 3 1 3 7 8 8 9 11 12
18 18 19 22 25 25 17 10 15 33 20 11 15 14 11 16 10 9 9 5 2 3 5 7 7 7 9 10 11 11 10 9 9 8 7 6 5 3 2 1 3 5 7 10 10 9 8 12 14
21 22 20 20 22 23 32 26 20 17 10 4 36 17 20 22 18 14 12 10 7 6 5 4 5 5 5 6 9 11 11 11 9 8 6 5 5 5 5 4 7 11 13 12 12 13 13 17 21
Wind_Direction
84 78 94 104 297 119 35 87 153 184 210 214 233 227 218 201 218 259 135 184 142 134 123 124 118 124 122 123 121 116 120 116 107 105 96 83 77 75 71 66 56 51 42 37 29 27 28 34 19
155 166 208 288 226 59 85 132 181 187 191 213 227 231 234 222 214 234 174 183 170 161 145 138 122 111 123 127 121 119 118 111 112 111 92 76 72 76 74 62 58 55 49 45 46 50 51 48 41
203 199 224 2 93 88 98 45 51 164 179 230 220 217 218 227 213 211 198 211 200 185 166 151 140 117 125 122 117 117 108 113 128 117 95 85 77 77 72 66 61 54 51 53 54 54 55 45 37
178 194 213 63 350 32 347 340 155 175 192 207 224 229 221 221 207 191 183 182 208 188 174 156 155 138 133 124 116 103 90 105 118 110 95 85 81 79 73 61 63 64 57 61 58 52 44 46 46
186 182 127 85 141 343 341 317 288 289 289 252 249 219 213 215 210 193 183 178 185 189 173 166 162 146 137 131 120 106 97 104 106 99 95 87 78 77 67 59 59 75 65 61 50 50 45 44 37
221 291 76 89 341 8 333 319 309 313 306 285 271 258 222 213 199 192 182 178 176 183 179 168 161 150 148 139 130 121 109 103 100 93 84 76 65 93 73 65 65 74 62 46 43 51 39 39 33
59 107 92 11 359 7 350 338 306 297 286 281 255 229 217 207 199 198 185 176 181 178 179 169 171 166 162 147 139 128 120 103 94 94 85 76 86 77 75 68 63 64 60 51 49 45 41 32 25
54 15 34 0 342 62 8 347 319 293 295 288 281 230 226 212 201 200 191 179 184 179 176 177 181 172 164 156 145 131 119 105 99 96 84 82 79 85 78 63 68 69 54 47 52 49 41 36 31
101 99 71 341 352 4 356 0 346 310 271 280 266 252 225 208 195 192 196 188 187 172 176 184 179 172 164 159 151 138 115 102 104 89 87 91 95 91 78 76 63 56 54 48 43 38 34 31 23
40 102 55 359 14 347 3 2 358 310 272 340 261 221 216 192 186 185 193 200 184 173 174 182 174 171 168 161 156 148 129 112 106 97 105 94 95 97 87 76 63 58 44 39 33 31 29 30 24
28 65 40 12 19 9 14 14 353 358 117 330 228 175 195 187 186 184 188 196 190 182 179 166 167 173 161 157 159 151 138 125 120 116 119 103 108 88 85 73 58 43 34 27 28 21 17 22 11
24 22 11 6 21 14 23 14 12 2 38 93 118 131 172 183 186 187 183 190 191 180 175 170 165 160 160 159 148 149 143 136 133 131 132 114 96 71 67 57 48 29 21 18 20 17 12 1 355
342 35 6 32 38 27 28 20 17 19 26 38 63 141 155 171 177 182 182 185 192 178 176 167 166 160 160 163 152 149 141 148 145 141 132 99 48 34 32 23 14 14 4 358 8 7 360 358 7
103 177 87 33 24 33 20 25 24 31 33 55 74 115 137 170 177 174 169 171 180 168 169 169 166 162 162 151 157 151 146 150 139 123 69 28 351 342 358 358 349 347 344 349 349 356 354 7 3
312 13 83 32 24 17 8 27 33 26 33 58 85 92 132 152 153 151 149 154 156 172 170 174 173 171 154 129 139 152 152 167 181 182 186 274 306 330 339 337 337 332 335 335 345 346 3 357 354
58 38 63 16 39 15 334 77 59 14 29 45 98 131 139 147 147 149 148 150 157 171 178 174 180 188 162 127 125 150 157 174 188 212 234 269 286 303 309 312 316 317 322 336 345 1 353 347 348
65 48 27 344 12 11 339 33 39 13 3 23 88 155 169 167 171 165 166 159 165 168 166 172 173 177 170 154 143 153 165 180 196 225 259 274 285 292 300 308 319 321 324 333 355 2 345 344 355
59 14 307 26 344 341 355 355 5 7 355 343 329 189 183 191 190 189 188 190 177 172 171 172 171 175 182 186 202 210 196 214 225 233 255 274 286 296 307 312 314 318 325 339 347 355 349 357 5
40 298 273 123 345 344 333 332 252 356 344 333 318 279 246 217 219 224 203 193 199 194 187 184 188 194 201 205 218 227 224 248 260 258 265 278 286 297 312 307 308 322 330 333 339 359 6 11 29
298 305 310 64 358 295 264 240 303 258 325 327 316 285 264 242 231 219 218 214 206 207 212 211 209 208 212 223 232 242 248 255 256 263 271 285 299 319 318 314 314 313 325 331 13 29 41 45 36
300 291 347 314 309 298 324 262 309 264 219 322 334 318 274 262 244 233 227 224 223 222 223 229 231 232 231 237 244 248 245 245 251 272 291 304 311 309 302 301 300 318 300 52 60 68 52 30 38
277 281 316 311 301 297 326 309 295 296 197 193 353 334 313 278 261 245 236 230 222 217 220 230 234 235 237 242 245 243 237 236 246 263 277 287 310 315 315 310 335 124 152 83 73 66 35 35 24
269 260 267 291 312 298 308 313 288 283 277 170 79 352 326 304 273 257 248 240 232 225 222 220 232 242 241 236 227 220 219 226 224 191 170 143 107 93 88 87 95 107 122 77 57 53 33 36 14
264 275 284 282 306 298 292 257 269 298 41 11 28 337 336 324 277 269 248 242 233 220 207 200 211 221 226 215 209 206 194 171 158 148 132 126 123 112 101 95 93 94 79 65 43 34 22 13 16
273 283 288 291 285 293 262 281 311 18 13 61 302 322 342 333 309 287 260 248 233 213 197 190 208 218 219 211 203 186 168 164 152 145 141 127 110 100 95 91 85 73 66 42 30 21 10 6 359
264 265 266 274 278 288 288 298 263 114 39 112 229 284 297 331 316 314 320 224 206 205 190 170 169 165 168 172 177 173 172 164 160 162 153 129 117 100 92 82 78 69 53 31 30 15 7 353 347
254 270 277 259 265 277 293 302 288 146 230 204 235 267 247 281 318 336 360 122 156 168 169 152 142 144 148 151 159 169 171 174 178 169 152 141 132 124 111 105 93 92 72 26 44 20 9 357 346
251 239 255 259 260 268 270 282 297 243 196 223 210 271 254 260 293 311 334 331 129 133 129 129 134 137 145 155 164 172 178 183 184 182 174 164 157 143 141 138 137 155 313 315 318 314 317 327 338
258 272 277 285 264 244 251 264 280 264 193 225 258 190 242 258 276 292 284 313 289 200 166 147 145 151 160 167 168 171 179 183 191 195 191 184 175 163 175 321 341 315 308 311 311 311 313 332 342
250 272 251 249 275 287 244 216 265 274 276 293 272 226 228 245 268 269 277 265 287 257 245 231 186 169 180 194 193 188 184 187 192 203 212 214 212 214 231 264 306 301 300 301 304 315 330 340 339
Height
5889 5888 5886 5888 5884 5879 5887 5888 5888 5888 5890 5890 5891 5890 5891 5892 5893 5894 5894 5897 5897 5898 5898 5899 5900 5901 5900 5900 5903 5903 5904 5903 5903 5904 5905 5905 5904 5904 5905 5906 5905 5904 5904 5903 5902 5902 5901 5899 5898
5890 5888 5888 5889 5887 5880 5891 5888 5889 5888 5889 5889 5891 5890 5892 5893 5894 5895 5896 5897 5898 5899 5899 5900 5900 5901 5902 5902 5904 5905 5906 5905 5905 5906 5907 5906 5906 5907 5907 5907 5907 5906 5905 5904 5903 5903 5901 5900 5900
5891 5890 5888 5870 5884 5888 5889 5889 5888 5889 5890 5890 5891 5890 5893 5894 5895 5895 5896 5898 5898 5899 5899 5901 5901 5902 5903 5904 5905 5908 5908 5906 5907 5908 5908 5908 5908 5909 5909 5909 5908 5908 5907 5907 5906 5905 5904 5903 5902
5890 5889 5888 5889 5887 5888 5890 5890 5890 5890 5890 5891 5891 5892 5893 5894 5895 5896 5897 5898 5899 5900 5900 5901 5903 5904 5905 5906 5907 5909 5908 5908 5909 5910 5910 5910 5911 5912 5912 5911 5910 5910 5910 5910 5909 5908 5906 5905 5905
5889 5887 5881 5889 5892 5889 5889 5890 5890 5890 5890 5889 5890 5891 5893 5894 5895 5897 5897 5898 5900 5900 5901 5902 5904 5905 5906 5908 5909 5910 5910 5910 5911 5912 5912 5913 5914 5914 5914 5914 5913 5914 5914 5913 5913 5911 5909 5908 5908
5892 5894 5888 5894 5890 5889 5889 5890 5890 5890 5889 5889 5890 5891 5893 5893 5895 5897 5897 5897 5899 5901 5903 5903 5905 5906 5907 5909 5911 5912 5913 5913 5913 5914 5914 5915 5915 5916 5917 5917 5916 5916 5916 5915 5914 5913 5911 5910 5909
5898 5888 5894 5891 5895 5892 5892 5890 5891 5890 5889 5888 5888 5891 5893 5894 5895 5897 5898 5898 5899 5901 5903 5904 5906 5907 5909 5911 5912 5913 5914 5915 5915 5916 5917 5917 5918 5919 5919 5919 5919 5918 5918 5917 5916 5915 5913 5911 5910
5896 5896 5894 5895 5896 5894 5891 5890 5890 5888 5889 5887 5887 5890 5892 5894 5895 5897 5899 5899 5900 5902 5904 5905 5908 5908 5911 5912 5913 5915 5916 5917 5918 5919 5919 5919 5920 5921 5922 5921 5920 5920 5919 5919 5917 5916 5915 5913 5911
5899 5901 5901 5899 5897 5892 5893 5890 5889 5888 5883 5888 5887 5888 5891 5893 5895 5897 5899 5899 5900 5903 5905 5907 5909 5910 5912 5914 5915 5916 5918 5919 5920 5921 5921 5921 5922 5923 5923 5922 5922 5921 5921 5919 5918 5917 5916 5914 5913
5903 5903 5903 5903 5899 5897 5894 5890 5890 5887 5866 5884 5885 5886 5889 5892 5894 5896 5898 5900 5902 5904 5907 5908 5910 5911 5913 5914 5916 5918 5919 5921 5922 5923 5923 5923 5923 5923 5924 5923 5924 5923 5922 5921 5919 5918 5917 5916 5914
5907 5902 5906 5906 5903 5899 5897 5894 5889 5886 5881 5885 5886 5885 5889 5891 5894 5896 5899 5901 5903 5906 5907 5910 5910 5912 5914 5916 5918 5920 5921 5923 5924 5924 5924 5925 5924 5925 5925 5924 5924 5924 5923 5922 5922 5920 5919 5917 5915
5905 5906 5906 5906 5905 5902 5899 5895 5892 5886 5885 5887 5887 5885 5889 5892 5895 5898 5900 5903 5904 5907 5908 5910 5911 5913 5915 5917 5919 5921 5922 5924 5925 5925 5926 5926 5927 5926 5926 5926 5925 5924 5924 5923 5923 5922 5920 5918 5915
5910 5905 5906 5904 5904 5904 5902 5899 5895 5892 5889 5885 5887 5890 5892 5894 5897 5899 5901 5903 5905 5908 5910 5911 5912 5914 5916 5918 5920 5922 5923 5925 5926 5926 5926 5926 5926 5926 5926 5927 5926 5926 5925 5925 5924 5924 5921 5919 5917
5903 5902 5903 5904 5904 5905 5904 5902 5899 5897 5894 5892 5893 5894 5895 5896 5897 5900 5902 5904 5907 5908 5910 5912 5914 5915 5917 5919 5921 5923 5924 5926 5926 5927 5927 5926 5926 5927 5927 5927 5927 5926 5925 5924 5924 5923 5921 5919 5916
5892 5905 5905 5903 5905 5906 5905 5902 5900 5901 5900 5898 5897 5897 5898 5898 5899 5901 5903 5906 5907 5909 5911 5913 5914 5916 5918 5920 5921 5922 5924 5925 5926 5927 5927 5927 5927 5927 5928 5927 5926 5926 5925 5924 5923 5922 5921 5918 5915
5901 5900 5900 5906 5908 5907 5904 5901 5896 5903 5903 5901 5900 5900 5900 5901 5902 5903 5904 5906 5908 5909 5911 5913 5915 5916 5918 5920 5921 5922 5924 5924 5926 5927 5927 5927 5926 5927 5927 5927 5926 5925 5925 5924 5923 5921 5919 5916 5912
5905 5904 5905 5913 5912 5910 5902 5874 5898 5903 5905 5903 5902 5902 5903 5903 5904 5905 5906 5907 5908 5910 5911 5913 5914 5916 5918 5920 5921 5922 5924 5925 5925 5926 5926 5926 5926 5926 5926 5925 5925 5925 5924 5924 5923 5924 5920 5916 5914
5916 5913 5918 5912 5915 5913 5909 5907 5905 5905 5904 5904 5904 5903 5904 5905 5905 5905 5906 5907 5908 5909 5911 5912 5913 5915 5917 5919 5921 5922 5923 5924 5925 5925 5925 5926 5925 5924 5925 5925 5924 5924 5924 5924 5924 5923 5919 5917 5917
5913 5918 5916 5912 5918 5916 5915 5912 5897 5905 5906 5904 5904 5904 5904 5905 5905 5905 5906 5907 5908 5910 5910 5912 5913 5915 5917 5919 5920 5921 5922 5923 5925 5925 5925 5925 5925 5924 5925 5924 5924 5924 5924 5924 5924 5923 5920 5919 5918
5923 5916 5914 5914 5915 5918 5912 5910 5911 5899 5905 5905 5903 5903 5903 5904 5904 5905 5905 5907 5907 5909 5911 5912 5913 5914 5916 5918 5919 5920 5921 5922 5923 5923 5923 5924 5924 5923 5923 5922 5922 5922 5923 5923 5924 5923 5921 5921 5919
5922 5912 5915 5916 5915 5916 5912 5906 5907 5910 5903 5907 5904 5903 5902 5902 5903 5904 5905 5906 5907 5908 5910 5911 5913 5914 5915 5917 5918 5919 5919 5920 5921 5921 5922 5922 5922 5921 5920 5920 5921 5921 5921 5923 5923 5922 5921 5920 5920
5917 5918 5915 5913 5913 5914 5910 5898 5906 5909 5905 5903 5905 5903 5902 5902 5901 5902 5902 5904 5905 5906 5907 5909 5911 5912 5913 5915 5916 5917 5918 5919 5920 5921 5922 5922 5922 5921 5920 5919 5919 5920 5922 5921 5922 5922 5922 5920 5920
5913 5910 5909 5910 5910 5911 5912 5905 5896 5898 5887 5883 5892 5904 5902 5900 5900 5900 5900 5901 5902 5904 5905 5907 5908 5910 5911 5913 5914 5915 5917 5919 5919 5920 5921 5922 5922 5921 5920 5919 5919 5920 5922 5922 5923 5922 5921 5922 5921
5906 5906 5907 5907 5908 5909 5907 5899 5895 5897 5894 5889 5890 5903 5902 5900 5898 5898 5898 5898 5900 5901 5903 5904 5906 5908 5909 5911 5913 5915 5917 5918 5919 5920 5921 5922 5923 5923 5922 5921 5921 5922 5923 5923 5924 5923 5923 5922 5921
5902 5903 5903 5906 5908 5908 5901 5900 5892 5898 5901 5898 5902 5902 5902 5900 5898 5897 5896 5897 5898 5900 5901 5902 5904 5905 5907 5910 5913 5915 5917 5918 5919 5921 5922 5922 5923 5923 5923 5923 5923 5923 5924 5925 5924 5924 5923 5923 5922
5900 5902 5903 5903 5904 5898 5898 5897 5894 5893 5901 5908 5907 5905 5902 5902 5900 5898 5896 5896 5898 5900 5900 5901 5901 5903 5906 5909 5912 5915 5917 5918 5920 5921 5921 5923 5923 5924 5924 5923 5923 5923 5924 5924 5924 5924 5924 5923 5922
5898 5896 5898 5897 5899 5899 5898 5899 5899 5895 5902 5904 5905 5903 5901 5902 5901 5901 5899 5898 5899 5900 5901 5901 5902 5904 5906 5909 5912 5915 5917 5918 5919 5920 5922 5923 5923 5924 5924 5923 5923 5923 5924 5925 5925 5924 5924 5923 5923
5891 5894 5894 5893 5893 5894 5900 5900 5896 5886 5894 5899 5901 5902 5898 5901 5901 5901 5900 5901 5900 5900 5901 5903 5904 5906 5908 5910 5913 5915 5917 5918 5919 5920 5921 5922 5923 5923 5924 5924 5924 5924 5924 5923 5923 5922 5921 5921 5921
5891 5888 5889 5889 5889 5889 5893 5901 5893 5888 5892 5895 5894 5899 5898 5898 5899 5900 5900 5900 5901 5902 5902 5903 5905 5907 5909 5911 5913 5915 5917 5918 5920 5920 5921 5921 5922 5923 5924 5924 5925 5924 5923 5922 5921 5920 5920 5919 5917
5882 5883 5885 5886 5888 5885 5886 5887 5890 5887 5886 5889 5884 5892 5895 5897 5897 5900 5900 5901 5902 5902 5903 5904 5905 5907 5909 5911 5913 5915 5916 5917 5919 5920 5920 5921 5922 5922 5923 5924 5924 5923 5922 5920 5920 5919 5920 5919 5917